Flag for Poland Weather past 2 weeks in Bydgoszcz, Poland

Now
54 °F

Overcast.


Feels Like: 54 °F
Forecast: 50 / 65 °F
Wind: 1 mph from Northeast

Location: Torun

Current Time: Sep 4, 2015 at 8:25:22 AM

Latest Report: Sep 4, 2015 at 7:00 AM


Visibility: 9 mi

Pressure: 29.90 "Hg

Humidity: 83%

Dew point: 49 °F

Location of BydgoszczLocation

Historic Weather in Bydgoszcz — Graph

°F

Bydgoszcz temperature yesterday

Maximum temperature yesterday: 69 °F (at 1:00 PM)
Minimum temperature yesterday: 49 °F (at 2:00 AM)
Average temperature yesterday: 60 °F

Past Weeks' High & Low Weather Summary

 TemperatureHumidityPressure
High94 °F (Sep 1, 4:00 PM)99% (Sep 2, 5:00 AM)30.37 "Hg (Sep 2, 5:00 AM)
Low46 °F (Aug 21, 5:00 AM)24% (Sep 1, 5:00 PM)29.66 "Hg (Sep 1, 7:00 PM)
Average68 °F59%30.04 "Hg
* Reported Aug 20 7:00 AM — Sep 4 7:00 AM, Bydgoszcz, Weather by CustomWeather, © 2015

Note: Actual official high and low records may vary slightly from our data, if they occured in-between our weather recording intervals... More about our weather records

Advertising

Bydgoszcz weather history for previous 24 hours

 ConditionsComfort  
Time TempWeatherWind HumidityBarometerVisibility
7:00 AM
Fri, Sep 4
54 °FOvercast.1 mph83%29.90 "Hg9 mi
6:00 AM56 °FOvercast.1 mph81%29.90 "Hg12 mi
5:00 AM55 °FOvercast.1 mph83%29.90 "Hg9 mi
4:00 AM53 °FOvercast.1 mph86%29.92 "Hg11 mi
3:00 AM51 °FPassing clouds.1 mph91%29.92 "Hg7 mi
2:00 AM53 °FPassing clouds.1 mph87%29.93 "Hg7 mi
1:00 AM52 °FOvercast.1 mph91%29.96 "Hg7 mi
12:00 AM52 °FPassing clouds.1 mph90%29.96 "Hg6 mi
10:00 PM
Thu, Sep 3
56 °FPassing clouds.1 mph81%29.96 "Hg7 mi
9:00 PM59 °FOvercast.1 mph73%29.96 "Hg22 mi
8:00 PM63 °FOvercast.1 mph63%29.96 "Hg22 mi
7:00 PM67 °FPartly sunny.1 mph50%29.96 "Hg31 mi
6:00 PM68 °FPartly sunny.3 mph47%29.96 "Hg31 mi
5:00 PM68 °FPartly sunny.3 mph45%29.96 "Hg28 mi
4:00 PM69 °FPartly sunny.2 mph46%29.97 "Hg25 mi
3:00 PM69 °FPartly sunny.3 mph46%29.98 "Hg28 mi
2:00 PM68 °FPartly sunny.2 mph50%29.99 "Hg31 mi
1:00 PM69 °FPartly sunny.2 mph48%30.00 "Hg25 mi
12:00 PM66 °FOvercast.1 mph46%30.01 "Hg31 mi
11:00 AM68 °FPartly sunny.1 mph47%30.01 "Hg28 mi
10:00 AM66 °FScattered clouds.1 mph51%30.01 "Hg25 mi
9:00 AM62 °FPassing clouds.1 mph67%30.02 "Hg17 mi
8:00 AM57 °FScattered clouds.2 mph81%30.02 "Hg15 mi
Weather by CustomWeather, © 2015

See weather overviewHow to use our weather pages